DW0630 Weather Reports


Display with metric or nautical units.
time (UTC)temp
F
wind
direction
speed
MPH
gust
MPH
rain 1hr
in
rain 24hr
in
rain mn
in
humidity
%
barometer
mb
20181016230521 55 194 4.0 9.0 0.00 0.01 0.00 90 1016.2
20181016230021 55 194 2.0 6.0 0.00 0.01 0.00 90 1016.1
20181016225521 55 194 4.0 7.0 0.00 0.01 0.01 90 1016.1
20181016225036 54 194 4.0 9.0 0.00 0.01 0.01 90 1016.1
20181016224522 54 194 5.0 10.0 0.00 0.01 0.01 90 1016.0
20181016224037 54 194 6.0 10.0 0.00 0.01 0.01 90 1016.0
20181016223521 54 194 5.0 8.0 0.00 0.01 0.01 90 1016.0
20181016223035 54 194 7.0 12.0 0.00 0.01 0.01 90 1016.0
20181016222522 54 194 7.0 12.0 0.00 0.01 0.01 90 1016.0
20181016222036 54 194 5.0 12.0 0.00 0.01 0.01 90 1016.0
20181016221521 54 194 5.0 7.0 0.00 0.01 0.01 90 1016.0
20181016221035 54 194 6.0 10.0 0.00 0.01 0.01 90 1016.0
20181016220521 54 194 5.0 7.0 0.00 0.01 0.01 90 1016.1
20181016220022 54 194 2.0 8.0 0.00 0.01 0.01 90 1016.1
20181016215521 54 194 6.0 10.0 0.00 0.01 0.01 90 1016.1
20181016215036 54 194 6.0 10.0 0.00 0.01 0.01 90 1016.2
20181016214521 54 194 5.0 9.0 0.00 0.01 0.01 90 1016.2
20181016214035 54 194 5.0 7.0 0.00 0.01 0.01 90 1016.2
20181016213521 54 194 5.0 7.0 0.00 0.01 0.01 90 1016.2
20181016213038 54 194 5.0 9.0 0.00 0.01 0.01 90 1016.2
20181016212522 54 194 5.0 10.0 0.00 0.01 0.01 90 1016.1
20181016212036 53 194 7.0 10.0 0.00 0.01 0.01 90 1016.2
20181016211521 53 194 6.0 12.0 0.00 0.02 0.01 90 1016.1
20181016211035 53 194 6.0 9.0 0.00 0.02 0.01 90 1016.1
20181016210522 53 194 5.0 7.0 0.00 0.03 0.01 90 1016.1
20181016210022 53 194 3.0 6.0 0.00 0.04 0.01 90 1016.2
20181016205521 53 194 3.0 6.0 0.00 0.04 0.01 90 1016.2
20181016205034 53 194 6.0 10.0 0.00 0.04 0.01 90 1016.2
20181016204522 54 194 6.0 7.0 0.00 0.05 0.01 89 1016.3
20181016204035 54 194 5.0 7.0 0.00 0.05 0.01 89 1016.3
20181016203521 54 194 5.0 7.0 0.00 0.05 0.01 89 1016.3
20181016203034 54 194 6.0 7.0 0.00 0.05 0.01 89 1016.3
20181016202521 54 194 4.0 7.0 0.00 0.05 0.01 91 1016.3
20181016202035 54 194 5.0 10.0 0.00 0.05 0.01 89 1016.2
20181016201521 54 194 7.0 10.0 0.00 0.05 0.01 89 1016.1
20181016201035 54 194 8.0 12.0 0.00 0.05 0.01 89 1015.9
20181016200521 54 193 9.0 12.0 0.00 0.05 0.01 89 1015.9
20181016200021 54 193 8.0 12.0 0.00 0.05 0.01 89 1015.9
20181016195521 54 192 6.0 10.0 0.00 0.05 0.01 89 1016.0
20181016195034 54 192 7.0 12.0 0.00 0.05 0.01 89 1016.0
20181016194521 54 192 5.0 12.0 0.00 0.05 0.01 89 1016.0
20181016194034 55 192 3.0 7.0 0.00 0.05 0.01 89 1016.0
20181016193520 55 192 5.0 10.0 0.00 0.05 0.01 89 1015.9
20181016193036 55 192 6.0 10.0 0.00 0.05 0.01 89 1015.9
20181016192521 55 192 6.0 12.0 0.00 0.05 0.01 89 1015.9
20181016192035 55 192 5.0 12.0 0.00 0.05 0.01 89 1015.8
20181016191521 55 192 6.0 10.0 0.00 0.05 0.01 89 1015.8
20181016191034 55 192 8.0 12.0 0.00 0.05 0.01 89 1015.7
20181016190521 56 190 8.0 12.0 0.00 0.06 0.01 89 1015.7
20181016190021 56 188 8.0 14.0 0.00 0.06 0.01 89 1015.7
20181016185521 56 188 11.0 16.0 0.00 0.06 0.01 89 1015.7
20181016185034 56 205 10.0 15.0 0.00 0.06 0.01 89 1015.7
20181016184520 56 205 7.0 10.0 0.00 0.06 0.01 89 1015.7
20181016184034 56 213 6.0 10.0 0.00 0.06 0.01 89 1015.7
20181016183520 56 213 7.0 13.0 0.00 0.06 0.01 89 1015.7
20181016183036 56 213 6.0 9.0 0.00 0.06 0.01 89 1015.6
20181016182521 56 213 6.0 10.0 0.00 0.06 0.01 88 1015.6
20181016182034 56 213 6.0 9.0 0.00 0.06 0.01 88 1015.6
20181016181520 56 213 5.0 7.0 0.00 0.06 0.01 88 1015.6
20181016181035 56 213 5.0 9.0 0.00 0.06 0.01 88 1015.6
20181016180520 56 213 5.0 9.0 0.00 0.06 0.01 88 1015.5
20181016180020 56 213 2.0 7.0 0.00 0.06 0.01 88 1015.5
20181016175520 57 213 3.0 7.0 0.00 0.06 0.01 88 1015.5
20181016175034 57 213 5.0 8.0 0.00 0.06 0.01 87 1015.5
20181016174520 57 213 3.0 6.0 0.00 0.07 0.01 87 1015.5
20181016174034 57 213 5.0 7.0 0.00 0.07 0.01 87 1015.5
20181016173520 57 213 6.0 12.0 0.00 0.07 0.01 87 1015.5
20181016173034 57 215 6.0 12.0 0.00 0.07 0.01 86 1015.5
20181016172520 57 216 6.0 10.0 0.00 0.07 0.01 86 1015.5
20181016172034 57 220 6.0 12.0 0.00 0.07 0.01 86 1015.4
20181016171520 57 220 5.0 9.0 0.00 0.07 0.01 86 1015.4
20181016171033 57 220 7.0 12.0 0.00 0.08 0.01 86 1015.3
20181016170520 57 221 7.0 12.0 0.00 0.08 0.01 86 1015.3
20181016170020 57 221 6.0 12.0 0.00 0.08 0.01 85 1015.3
20181016165521 57 221 7.0 12.0 0.00 0.08 0.01 85 1015.2
20181016165034 58 222 5.0 12.0 0.00 0.08 0.01 85 1015.2
20181016164520 58 222 6.0 9.0 0.00 0.08 0.01 85 1015.0
20181016164034 58 222 5.0 9.0 0.00 0.09 0.01 85 1015.1
20181016163520 58 222 5.0 9.0 0.00 0.09 0.01 84 1015.0
20181016163036 58 222 4.0 7.0 0.00 0.09 0.01 84 1015.0
20181016162520 58 222 2.0 6.0 0.00 0.09 0.01 84 1015.0
20181016162034 58 222 4.0 7.0 0.00 0.10 0.01 83 1015.1
20181016161520 58 222 4.0 9.0 0.00 0.10 0.01 83 1015.1
20181016161033 58 222 4.0 9.0 0.00 0.10 0.01 83 1015.1
20181016160520 58 222 6.0 12.0 0.00 0.10 0.01 83 1015.0
20181016160020 58 222 5.0 12.0 0.00 0.10 0.01 83 1015.0
20181016155520 58 223 7.0 12.0 0.00 0.11 0.01 82 1015.0
20181016155033 58 224 6.0 9.0 0.00 0.11 0.01 82 1015.0
20181016154519 58 223 7.0 12.0 0.00 0.11 0.01 82 1015.0
20181016154033 58 223 10.0 14.0 0.00 0.12 0.01 83 1015.0
20181016153520 59 228 10.0 16.0 0.00 0.12 0.01 83 1015.0
20181016153033 59 223 6.0 12.0 0.00 0.12 0.01 84 1015.0
20181016152520 59 223 6.0 12.0 0.00 0.12 0.01 84 1014.9
20181016152034 59 222 5.0 9.0 0.00 0.12 0.01 84 1014.9
20181016151520 59 222 9.0 16.0 0.00 0.12 0.01 84 1014.8
20181016151033 59 227 9.0 16.0 0.00 0.13 0.01 84 1014.7
20181016150520 60 220 7.0 10.0 0.00 0.14 0.01 85 1014.7
20181016150019 59 220 3.0 10.0 0.00 0.14 0.01 86 1014.8
20181016145520 59 221 4.0 6.0 0.00 0.14 0.01 86 1014.9
20181016145033 59 221 0.0 6.0 0.00 0.14 0.01 86 1014.9
20181016144520 59 221 3.0 6.0 0.00 0.14 0.01 86 1014.9
20181016144033 59 221 5.0 12.0 0.00 0.15 0.01 85 1015.0
20181016143520 59 220 10.0 16.0 0.00 0.16 0.01 85 1015.0
20181016143033 59 209 9.0 15.0 0.00 0.16 0.01 85 1015.0
20181016142520 59 198 11.0 20.0 0.00 0.16 0.01 85 1014.9
20181016142033 59 193 15.0 20.0 0.00 0.18 0.01 86 1014.9
20181016141519 59 195 13.0 18.0 0.00 0.18 0.01 87 1014.9
20181016141033 59 201 13.0 23.0 0.00 0.20 0.01 88 1014.9
20181016140520 59 189 15.0 23.0 0.00 0.20 0.01 88 1014.8
20181016140020 59 195 15.0 23.0 0.00 0.20 0.01 89 1014.8
20181016135520 60 203 12.0 18.0 0.00 0.20 0.01 89 1014.8
20181016135032 60 205 16.0 24.0 0.00 0.20 0.01 89 1014.7
20181016134519 60 194 15.0 20.0 0.00 0.20 0.01 89 1014.7
20181016134032 60 192 14.0 20.0 0.00 0.20 0.01 89 1014.6
20181016133519 60 185 16.0 21.0 0.00 0.20 0.01 90 1014.5
20181016133033 60 193 11.0 18.0 0.00 0.20 0.01 90 1014.5
20181016132519 60 190 16.0 21.0 0.01 0.20 0.01 90 1014.4
20181016132032 60 203 15.0 20.0 0.01 0.20 0.01 90 1014.4
20181016131519 60 187 11.0 16.0 0.01 0.20 0.01 90 1014.5
20181016131032 60 188 12.0 17.0 0.01 0.20 0.01 89 1014.5
20181016130519 60 187 11.0 16.0 0.01 0.20 0.01 90 1014.4
20181016130019 60 188 12.0 16.0 0.01 0.20 0.01 89 1014.5
20181016125519 60 187 10.0 15.0 0.01 0.20 0.01 89 1014.4
20181016125033 60 192 9.0 15.0 0.01 0.20 0.01 89 1014.5
20181016124519 60 185 6.0 12.0 0.01 0.20 0.01 89 1014.4
20181016124032 60 184 7.0 12.0 0.01 0.20 0.01 89 1014.4
20181016123519 60 184 7.0 12.0 0.01 0.20 0.01 89 1014.4
20181016123032 60 186 5.0 12.0 0.01 0.20 0.01 89 1014.4
20181016122519 60 186 6.0 12.0 0.01 0.20 0.01 89 1014.4
20181016122032 60 185 9.0 12.0 0.01 0.20 0.01 88 1014.4
20181016121519 60 192 5.0 10.0 0.01 0.20 0.01 88 1014.4
20181016121033 60 192 5.0 9.0 0.01 0.20 0.01 88 1014.3
20181016120519 60 192 6.0 9.0 0.01 0.20 0.01 88 1014.3
20181016120019 60 192 6.0 10.0 0.00 0.19 0.00 88 1014.3
20181016115519 59 192 6.0 10.0 0.00 0.19 0.00 88 1014.4
20181016115032 59 192 6.0 8.0 0.00 0.19 0.00 88 1014.4
20181016114518 59 192 5.0 9.0 0.00 0.19 0.00 88 1014.5
20181016114033 59 192 5.0 7.0 0.00 0.19 0.00 88 1014.5
20181016113519 59 192 2.0 3.0 0.00 0.19 0.00 88 1014.5
20181016113032 59 192 3.0 5.0 0.00 0.19 0.00 88 1014.5
20181016112519 59 192 3.0 3.0 0.00 0.19 0.00 88 1014.6
20181016112032 59 192 2.0 5.0 0.00 0.19 0.00 88 1014.5
20181016111519 59 192 1.0 2.0 0.00 0.19 0.00 88 1014.6
20181016111032 58 192 0.0 1.0 0.00 0.19 0.00 88 1014.6
20181016110519 58 192 1.0 2.0 0.00 0.19 0.00 88 1014.6
20181016110018 58 192 1.0 2.0 0.00 0.19 0.00 89 1014.6
20181016105518 58 192 0.0 2.0 0.00 0.19 0.00 88 1014.7
20181016105032 58 192 1.0 2.0 0.00 0.19 0.00 89 1014.7
20181016104519 58 192 1.0 2.0 0.00 0.19 0.00 89 1014.7
20181016104032 58 192 2.0 3.0 0.00 0.19 0.00 89 1014.7
20181016103519 58 192 2.0 20.0 0.00 0.19 0.00 89 1014.6
20181016103032 58 46 0.0 1.0 0.00 0.19 0.00 89 1014.5
20181016102518 58 46 2.0 3.0 0.00 0.19 0.00 89 1014.7
20181016102032 57 46 2.0 3.0 0.00 0.19 0.00 89 1014.7
20181016101518 57 46 2.0 3.0 0.00 0.19 0.00 89 1014.6
20181016101033 57 46 2.0 3.0 0.00 0.19 0.00 89 1014.6
20181016100518 57 46 3.0 3.0 0.00 0.19 0.00 89 1014.5
20181016100019 57 46 3.0 3.0 0.00 0.19 0.00 89 1014.5
20181016095518 57 46 2.0 3.0 0.00 0.19 0.00 89 1014.4
20181016095031 57 46 3.0 5.0 0.00 0.19 0.00 89 1014.4
20181016094518 57 46 5.0 6.0 0.00 0.19 0.00 89 1014.4
20181016094031 57 46 3.0 3.0 0.00 0.19 0.00 89 1014.3
20181016093518 57 46 3.0 5.0 0.00 0.19 0.00 89 1014.3
20181016093032 57 46 3.0 5.0 0.00 0.19 0.00 89 1014.2
20181016092518 57 46 3.0 5.0 0.00 0.19 0.00 89 1014.2
20181016092032 57 46 3.0 6.0 0.00 0.19 0.00 89 1014.1
20181016091519 57 46 2.0 3.0 0.00 0.19 0.00 89 1014.0
20181016091031 57 46 2.0 5.0 0.00 0.19 0.00 89 1014.1
20181016090518 57 46 1.0 3.0 0.00 0.19 0.00 89 1014.1
20181016090018 57 46 2.0 7.0 0.00 0.19 0.00 89 1014.0
20181016085518 56 46 2.0 6.0 0.00 0.19 0.00 89 1014.0
20181016085031 56 46 2.0 6.0 0.00 0.19 0.00 89 1014.0
20181016084518 56 46 1.0 5.0 0.00 0.19 0.00 89 1014.0
20181016084031 56 46 1.0 3.0 0.00 0.19 0.00 89 1014.1
20181016083518 56 46 1.0 3.0 0.00 0.19 0.00 89 1014.2
20181016083031 55 46 1.0 3.0 0.00 0.19 0.00 89 1014.2
20181016082518 55 46 1.0 3.0 0.00 0.19 0.00 90 1014.2
20181016082031 55 46 2.0 3.0 0.00 0.19 0.00 89 1014.3
20181016081518 55 46 2.0 3.0 0.00 0.19 0.00 89 1014.3
20181016081031 55 46 2.0 3.0 0.00 0.19 0.00 90 1014.2
20181016080519 55 46 2.0 3.0 0.00 0.19 0.00 90 1014.2
20181016080018 55 46 2.0 3.0 0.00 0.19 0.00 90 1014.4
20181016075518 55 46 0.0 0.0 0.00 0.19 0.00 90 1014.3
20181016075032 55 46 0.0 0.0 0.00 0.19 0.00 90 1014.3
20181016074518 54 46 0.0 0.0 0.00 0.19 0.00 90 1014.3
20181016074031 54 46 0.0 0.0 0.00 0.19 0.00 90 1014.3
20181016073517 54 46 0.0 0.0 0.00 0.19 0.00 90 1014.5
20181016073031 54 46 0.0 0.0 0.00 0.19 0.00 90 1014.4
20181016072517 54 46 0.0 0.0 0.00 0.19 0.00 90 1014.5
20181016072032 54 46 0.0 0.0 0.00 0.19 0.00 90 1014.4
20181016071518 54 46 0.0 0.0 0.00 0.19 0.00 90 1014.3
20181016071031 54 46 0.0 1.0 0.00 0.19 0.00 90 1014.3
20181016070518 54 46 1.0 3.0 0.00 0.19 0.00 90 1014.2
20181016070017 54 46 2.0 3.0 0.00 0.19 0.00 90 1014.1
20181016065518 54 46 2.0 3.0 0.00 0.19 0.00 90 1014.2
20181016065031 54 46 2.0 3.0 0.00 0.19 0.00 90 1014.2
20181016064518 54 46 1.0 2.0 0.00 0.19 0.00 90 1014.2
20181016064031 54 46 2.0 2.0 0.00 0.19 0.00 90 1014.0
20181016063519 54 46 1.0 1.0 0.00 0.19 0.00 90 1014.0
20181016063031 54 46 0.0 1.0 0.00 0.19 0.00 90 1014.0
20181016062517 54 46 1.0 2.0 0.00 0.19 0.00 90 1013.9
20181016062031 54 46 0.0 1.0 0.00 0.19 0.00 90 1013.9
20181016061518 54 46 0.0 0.0 0.00 0.19 0.00 90 1013.9
20181016061031 54 46 0.0 0.0 0.00 0.19 0.00 90 1013.9
20181016060517 54 46 0.0 2.0 0.00 0.19 0.00 90 1013.9
20181016060017 54 46 0.0 2.0 0.00 0.19 0.00 90 1013.9
20181016055518 54 46 1.0 3.0 0.00 0.20 0.00 90 1013.9
20181016055031 54 46 1.0 3.0 0.00 0.20 0.00 90 1013.8
20181016054517 54 46 1.0 3.0 0.00 0.20 0.00 90 1013.6
20181016054030 54 46 1.0 3.0 0.00 0.20 0.00 90 1013.6
20181016053517 54 46 2.0 3.0 0.00 0.20 0.00 90 1013.6
20181016053031 54 46 1.0 3.0 0.00 0.20 0.00 90 1013.7
20181016052517 55 46 2.0 3.0 0.00 0.20 0.00 90 1013.6
20181016052030 55 46 3.0 3.0 0.00 0.20 0.00 90 1013.5
20181016051518 55 46 0.0 2.0 0.00 0.20 0.00 90 1013.5
20181016051031 55 46 1.0 2.0 0.00 0.20 0.00 90 1013.5
20181016050518 55 46 1.0 2.0 0.00 0.20 0.00 90 1013.5
20181016050017 55 46 0.0 0.0 0.00 0.20 0.00 90 1013.4
20181016045517 55 46 0.0 2.0 0.00 0.20 0.00 90 1013.4
20181016045031 55 46 1.0 2.0 0.00 0.20 0.00 90 1013.4
20181016044517 55 46 0.0 2.0 0.00 0.20 0.00 90 1013.3
20181016044030 55 46 0.0 0.0 0.00 0.20 0.00 90 1013.2
20181016043517 55 46 0.0 2.0 0.00 0.20 0.00 90 1013.2
20181016043031 55 46 0.0 0.0 0.00 0.20 0.00 90 1013.2
20181016042517 55 46 0.0 0.0 0.00 0.20 0.00 90 1013.1
20181016042031 55 46 0.0 0.0 0.00 0.20 0.00 90 1013.1
20181016041517 55 46 0.0 1.0 0.00 0.20 0.00 90 1013.0
20181016041031 55 46 1.0 2.0 0.00 0.20 0.00 90 1013.1
20181016040517 55 46 2.0 3.0 0.00 0.20 0.00 90 1013.1
20181016040017 55 46 2.0 3.0 0.00 0.20 0.00 90 1013.2
20181016035517 55 46 1.0 3.0 0.00 0.20 0.00 90 1013.2
20181016035030 55 46 0.0 1.0 0.00 0.20 0.00 90 1013.2
20181016034517 55 46 1.0 3.0 0.00 0.20 0.00 90 1013.1
20181016034030 55 46 2.0 3.0 0.00 0.20 0.00 90 1013.0
20181016033516 55 46 2.0 3.0 0.00 0.20 0.00 90 1013.0
20181016033030 55 46 1.0 2.0 0.00 0.20 0.00 90 1012.9
20181016032517 55 46 0.0 0.0 0.00 0.20 0.00 90 1013.0
20181016032030 55 46 0.0 1.0 0.00 0.20 0.00 90 1013.0
20181016031516 55 46 1.0 3.0 0.00 0.20 0.00 90 1013.1
20181016031030 55 46 0.0 3.0 0.00 0.20 0.00 90 1013.1
20181016030517 55 46 2.0 3.0 0.00 0.20 0.00 90 1013.0
20181016030017 55 46 3.0 3.0 0.00 0.20 0.00 90 1013.0
20181016025517 55 46 3.0 5.0 0.00 0.20 0.00 90 1012.9
20181016025030 55 46 2.0 3.0 0.00 0.20 0.00 90 1012.9
20181016024517 55 46 0.0 0.0 0.00 0.20 0.00 90 1012.9
20181016024030 55 46 0.0 0.0 0.00 0.20 0.00 90 1013.0
20181016023517 55 46 0.0 0.0 0.00 0.20 0.00 90 1013.0
20181016023030 55 46 0.0 0.0 0.00 0.20 0.00 90 1012.9
20181016022516 55 46 0.0 1.0 0.00 0.20 0.00 90 1013.0
20181016022030 55 46 1.0 3.0 0.00 0.20 0.00 90 1013.0
20181016021516 55 46 1.0 3.0 0.00 0.20 0.00 90 1013.1
20181016021029 55 46 2.0 3.0 0.00 0.20 0.00 90 1013.1
20181016020517 55 46 1.0 2.0 0.00 0.20 0.00 90 1013.2
20181016020017 55 46 1.0 2.0 0.00 0.20 0.00 90 1013.2
20181016015517 55 46 1.0 2.0 0.00 0.20 0.00 90 1013.4
20181016015030 55 46 0.0 2.0 0.00 0.20 0.00 90 1013.4
20181016014516 55 46 2.0 3.0 0.00 0.20 0.00 90 1013.4
20181016014029 55 46 2.0 3.0 0.00 0.20 0.00 90 1013.4
20181016013516 55 46 2.0 3.0 0.00 0.20 0.00 91 1013.5
20181016013032 55 46 1.0 3.0 0.00 0.20 0.00 91 1013.5
20181016012516 55 46 2.0 3.0 0.00 0.20 0.00 91 1013.5
20181016012030 55 46 0.0 2.0 0.00 0.20 0.00 91 1013.5
20181016011516 55 46 1.0 3.0 0.00 0.20 0.00 91 1013.6
20181016011030 55 46 1.0 3.0 0.00 0.20 0.00 91 1013.5
20181016010516 55 46 1.0 3.0 0.00 0.20 0.00 91 1013.6
20181016010016 55 46 1.0 3.0 0.00 0.20 0.00 91 1013.5
20181016005516 55 46 2.0 3.0 0.00 0.20 0.00 90 1013.6
20181016005029 55 46 2.0 3.0 0.00 0.21 0.00 90 1013.6
20181016004516 55 46 2.0 3.0 0.00 0.21 0.00 90 1013.6
20181016004030 55 46 2.0 5.0 0.00 0.21 0.00 90 1013.5
20181016003516 55 46 2.0 3.0 0.00 0.21 0.00 90 1013.5
20181016003029 55 46 3.0 5.0 0.00 0.21 0.00 90 1013.4
20181016002516 55 46 1.0 3.0 0.00 0.21 0.00 90 1013.5
20181016002030 55 46 0.0 0.0 0.00 0.21 0.00 90 1013.5
20181016001516 55 46 0.0 0.0 0.00 0.21 0.00 90 1013.4
20181016001030 55 46 0.0 0.0 0.00 0.21 0.00 91 1013.4
20181016000516 55 46 0.0 0.0 0.00 0.21 0.00 91 1013.4
20181016000016 55 46 0.0 0.0 0.00 0.21 0.00 91 1013.4
20181015235516 55 46 0.0 0.0 0.00 0.21 0.00 91 1013.3
20181015235029 55 46 0.0 2.0 0.00 0.21 0.00 91 1013.3
20181015234516 55 46 2.0 3.0 0.00 0.21 0.00 91 1013.2
20181015234029 55 46 2.0 3.0 0.00 0.21 0.00 91 1013.2
20181015233516 55 46 2.0 3.0 0.00 0.21 0.00 91 1013.2
20181015233029 55 46 0.0 2.0 0.00 0.21 0.00 91 1013.3
20181015232516 55 46 0.0 0.0 0.00 0.21 0.00 91 1013.3
20181015232029 55 46 0.0 1.0 0.00 0.21 0.00 91 1013.2
20181015231515 55 46 2.0 3.0 0.00 0.21 0.00 91 1013.3
20181015231030 55 46 2.0 3.0 0.00 0.21 0.00 91 1013.4